Regional Weather Roundup
Issued by NWS

Home | Current Version | Previous Version | Graphics & Text | Print | Product List | Glossary On
Versions: 1 2 3 4 5 6 7 8 9 10 11 12 13 14 15 16 17 18 19 20 21 22 23 24 25 26 27 28 29 30 31 32 33 34 35 36 37 38 39 40 41 42 43 44 45 46 47 48 49 50
000
ASUS43 KFSD 311910
RWRSD

WEATHER ROUNDUP FOR SOUTH DAKOTA
NATIONAL WEATHER SERVICE SIOUX FALLS SD
200 PM CDT FRI JUL 31 2015

NOTE: "FAIR" INDICATES FEW OR NO CLOUDS BELOW 12,000 FEET WITH NO
SIGNIFICANT WEATHER AND/OR OBSTRUCTIONS TO VISIBILITY.


SDZ001>005-009-010-012>017-312000-
NORTHWEST AND NORTH CENTRAL SOUTH DAKOTA

CITY           SKY/WX    TMP DP  RH WIND       PRES   REMARKS
BUFFALO          N/A     88  39  17 SE7       30.13F
FAITH            N/A     89  38  16 NE9       30.17F
MOBRIDGE       SUNNY     89  54  30 W9        30.10F
$$

SDZ012>016-024>037-041>051-057-063-072>074-312000-
SOUTHWEST AND SOUTH CENTRAL SOUTH DAKOTA

CITY           SKY/WX    TMP DP  RH WIND       PRES   REMARKS
RAPID CTY ARPT SUNNY     84  53  34 NE7       30.21F
PIERRE         SUNNY     87  51  28 VRB6      30.12F
CUSTER         PTSUNNY   80  46  30 E13       30.34F
ELLSWORTH AFB  SUNNY     85  48  27 NE9       30.21F
PHILIP         SUNNY     87  56  34 NE3       30.15F
PINE RIDGE     SUNNY     90  49  24 NE8       30.20F
SPEARFISH      FAIR      81  48  32 E9G17     30.26F
WINNER         FAIR      90  56  31 VRB3      30.14F
$$

SDZ004>011-016>023-039-040-312000-
NORTHEAST SOUTH DAKOTA

CITY           SKY/WX    TMP DP  RH WIND       PRES   REMARKS
ABERDEEN       SUNNY     83  54  36 S9        30.11F
WATERTOWN      SUNNY     81  53  37 NW7       30.13F
BROOKINGS      SUNNY     81  52  36 NE6       30.15F
SISSETON         N/A     81  56  42 N8        30.09F
$$

SDZ017-020-022-023-036>040-048>070-312000-
SOUTHEAST SOUTH DAKOTA

CITY           SKY/WX    TMP DP  RH WIND       PRES   REMARKS
SIOUX FALLS    MOSUNNY   83  58  42 E5        30.13F
HURON          SUNNY     83  55  38 SW3       30.12F
CHAMBERLAIN    SUNNY     84  59  42 E5        30.14S
MITCHELL       SUNNY     84  57  39 SE7       30.13F
YANKTON        SUNNY     82  66  57 E10       30.10F
$$

ABBREVIATIONS USED IN REMARKS
   TC - TEMPERATURE IN CELSIUS
  WCI - WIND CHILL INDEX
   HX - HEAT INDEX
  VSB - VISIBILITY




USA.gov is the U.S. government's official web portal to all federal, state and local government web resources and services.